Home   Weather   Charleroi   Past weeks

Flag for Belgium Past Weather in Charleroi, Belgium — Yesterday and Last 2 Weeks

Now
61 °F

Sprinkles. Partly sunny.


Feels Like: 61 °F
Forecast: 55 / 65 °F
Wind: 7 mph from Southwest

Location: Charleroi / Gosselies

Current Time: Jul 22, 2017 at 8:58:27 pm

Latest Report: Jul 22, 2017 at 8:20 pm


Visibility: 3 mi

Pressure: 29.89 "Hg

Humidity: 94%

Dew Point: 59 °F

Location of CharleroiLocation

Past Weather in Charleroi — Graph

°F

Charleroi Temperature Yesterday

Maximum temperature yesterday: 79 °F (at 4:20 pm)
Minimum temperature yesterday: 52 °F (at 4:20 am)
Average temperature yesterday: 65 °F

High & Low Weather Summary for the Past Weeks

 TemperatureHumidityPressure
High86 °F (Jul 19, 5:20 pm)100% (Jul 12, 8:50 am)30.24 "Hg (Jul 12, 8:50 am)
Low48 °F (Jul 13, 4:50 am)34% (Jul 21, 3:50 pm)29.74 "Hg (Jul 12, 8:50 am)
Average66 °F67%30.01 "Hg
* Reported Jul 7 7:20 pm — Jul 22 7:20 pm, Charleroi. Weather by CustomWeather, © 2017

Note: Actual official high and low records may vary slightly from our data, if they occured in-between our weather recording intervals... More about our weather records

Advertising

Charleroi Weather History for the Previous 24 Hours

Scroll right to see more
 ConditionsComfort  
Time TempWeatherWind HumidityBarometerVisibility
7:20 pm
Sat, Jul 22
66 °FPassing clouds.7 mph78%29.89 "HgN/A
6:50 pm66 °FPartly sunny.7 mph78%29.89 "HgN/A
6:20 pm66 °FSprinkles. Broken clouds.13 mph78%29.89 "HgN/A
5:50 pm68 °FBroken clouds.13 mph69%29.89 "HgN/A
5:20 pm68 °FBroken clouds.13 mph69%29.89 "HgN/A
4:50 pm68 °FBroken clouds.10 mph69%29.89 "HgN/A
4:20 pm68 °FSprinkles. Broken clouds.10 mph69%29.89 "HgN/A
3:50 pm68 °FSprinkles. Broken clouds.10 mph64%29.89 "HgN/A
3:20 pm70 °FPartly sunny.14 mph57%29.89 "HgN/A
2:50 pm72 °FPartly sunny.17 mph50%29.89 "HgN/A
2:20 pm70 °FPartly sunny.12 mph53%29.89 "HgN/A
1:50 pm70 °FPartly sunny.13 mph53%29.89 "HgN/A
1:20 pm70 °FPartly sunny.16 mph53%29.89 "HgN/A
12:50 pm72 °FPartly sunny.12 mph50%29.89 "HgN/A
12:20 pm72 °FPassing clouds.10 mph50%29.89 "HgN/A
11:50 am72 °FPassing clouds.10 mph50%29.89 "HgN/A
11:20 am70 °FPassing clouds.17 mph50%29.89 "HgN/A
10:50 am70 °FPassing clouds.15 mph50%29.89 "HgN/A
10:20 am70 °FPassing clouds.16 mph50%29.89 "HgN/A
9:50 am68 °FSunny.17 mph53%29.89 "Hg10 mi
9:20 am68 °FSunny.14 mph53%29.89 "Hg10 mi
8:50 am66 °FSunny.10 mph60%29.89 "Hg10 mi
8:20 am64 °FPassing clouds.7 mph60%29.86 "HgN/A
7:50 am64 °FSunny.10 mph60%29.86 "Hg10 mi
7:20 am64 °FSunny.10 mph60%29.86 "Hg10 mi
6:20 am64 °FSunny.9 mph60%29.86 "Hg10 mi
5:20 am61 °FClear.5 mph68%29.86 "Hg10 mi
4:50 am59 °FClear.3 mph72%29.83 "Hg10 mi
4:20 am59 °FClear.6 mph77%29.83 "Hg10 mi
3:50 am61 °FClear.6 mph68%29.86 "Hg10 mi
3:20 am61 °FClear.8 mph68%29.86 "Hg10 mi
2:50 am61 °FClear.2 mph72%29.86 "Hg10 mi
2:20 am63 °FClear.6 mph64%29.86 "Hg10 mi
1:50 am63 °FClear.7 mph68%29.86 "Hg10 mi
1:20 am66 °FClear.9 mph56%29.86 "Hg10 mi
12:50 am66 °FClear.7 mph56%29.86 "Hg10 mi
12:20 am68 °FClear.6 mph53%29.83 "Hg10 mi
11:50 pm
Fri, Jul 21
66 °FPassing clouds.5 mph60%29.83 "HgN/A
11:20 pm66 °FClear.5 mph60%29.83 "Hg10 mi
10:50 pm70 °FPassing clouds.5 mph50%29.83 "HgN/A
10:20 pm70 °FClear.6 mph50%29.83 "Hg10 mi
9:50 pm72 °FPassing clouds.3 mph47%29.83 "HgN/A
9:20 pm72 °FPassing clouds.6 mph47%29.83 "HgN/A
8:50 pm73 °FSunny.7 mph44%29.83 "Hg10 mi
8:20 pm73 °FPassing clouds.8 mph44%29.83 "HgN/A
Weather by CustomWeather, © 2017

See weather overviewHow to use our weather pages